Location: Martley
(52.2333°N, 2.3667°W)
Time: 02:56:09
(UTC+00:00)

Cosmos 1833 Rocket - Pass Details

Date: 11 December 2019
Orbit: 831 x 841 km, 71.0° (Epoch: 22 January)

Event Time Altitude Azimuth Distance (km) Brightness Sun altitude
Exits shadow 06:40:06 - 335° (NNW) 2,710 4.9 -12.5°
Reaches altitude 10° 06:40:48 10° 337° (NNW) 2,464 4.7 -12.4°
Maximum altitude 06:46:09 42° 48° (NE) 1,193 3.7 -11.6°
Drops below altitude 10° 06:51:29 10° 119° (ESE) 2,457 6.7 -10.9°
Sets 06:54:03 0° 126° (SE) 3,390 7.7 -10.5°
